Hutchinson, MN

9:15 AM CDT on March 26, 2017 (GMT -0500)
Hutchinson Municipal-Butler

Weather History for KHCD - May, 2014

Change the Weather History Date:

Tuesday, May 13, 2014

  Actual Average Record
Temperature  
Mean Temperature 46 °F -  
Max Temperature 52 °F 70 °F 90 °F (1977)
Min Temperature 40 °F 43 °F 23 °F (1997)
Degree Days  
Heating Degree Days 19    
Moisture  
Dew Point 39 °F    
Average Humidity 75    
Maximum Humidity 90    
Minimum Humidity 53    
Precipitation  
Precipitation 0.01 in - - ()
Sea Level Pressure  
Sea Level Pressure 30.07 in    
Wind  
Wind Speed 15 mph (WNW)    
Max Wind Speed 22 mph    
Max Gust Speed 33 mph    
Visibility 10 miles    
Events      
Averages and records for this station are not official NWS values.
T = Trace of Precipitation, MM = Missing Value Source: NWS Daily Summary

Daily Weather History Graph

Daily Weather History Graph

Search for Another Location

Airport or City:

Trip Planner

Search our weather history database for the weather conditions in past years. The results will help you decide how hot, cold, wet, or windy it might be!

Date:

Astronomy

May. 13, 2014 Rise Set
Actual Time 5:51 AM CDT 8:37 PM CDT
Civil Twilight 5:17 AM CDT 9:11 PM CDT
Nautical Twilight 4:34 AM CDT 9:54 PM CDT
Astronomical Twilight 3:44 AM CDT 10:44 PM CDT
Moon 7:36 PM CDT (5/13) 5:12 AM CDT (5/13)
Length of Visible Light 15h 53m
Length of Day
14h 46m
Waxing Gibbous, 99% of the Moon is Illuminated
May 13
Waxing Gibbous
May 14
Full
May 21
Last Quarter
May 28
New
Jun 5
First Quarter

Hourly Weather History & Observations

Time (CDT) Temp. Windchill Dew Point Humidity Pressure Visibility Wind Dir Wind Speed Gust Speed Precip Events Conditions
12:13 AM 47.1 °F - 44.2 °F 90% 29.87 in 10.0 mi West 13.8 mph - N/A   Overcast
12:33 AM 46.6 °F - 43.7 °F 90% 29.87 in 10.0 mi WNW 19.6 mph - N/A   Overcast
1:13 AM 46.2 °F 39.5 °F 43.2 °F 89% 29.87 in 10.0 mi WNW 16.1 mph 25.3 mph N/A   Overcast
1:33 AM 46.0 °F 40.2 °F 43.2 °F 90% 29.87 in 10.0 mi WNW 12.7 mph - N/A   Overcast
1:53 AM 46.0 °F 40.2 °F 43.0 °F 89% 29.88 in 10.0 mi WNW 12.7 mph 19.6 mph N/A   Overcast
2:33 AM 45.9 °F 40.0 °F 42.8 °F 89% 29.91 in 10.0 mi West 12.7 mph - N/A   Overcast
2:53 AM 45.7 °F 39.5 °F 42.1 °F 87% 29.92 in 10.0 mi West 13.8 mph 20.7 mph N/A   Overcast
3:13 AM 45.7 °F 39.8 °F 42.1 °F 87% 29.92 in 10.0 mi West 12.7 mph - N/A   Overcast
3:33 AM 45.5 °F 39.6 °F 41.7 °F 87% 29.93 in 10.0 mi WNW 12.7 mph 21.9 mph N/A   Overcast
3:53 AM 45.1 °F 38.8 °F 41.9 °F 88% 29.93 in 10.0 mi WNW 13.8 mph 24.2 mph N/A   Overcast
4:13 AM 44.6 °F 37.2 °F 41.4 °F 88% 29.94 in 10.0 mi West 17.3 mph 21.9 mph N/A   Overcast
4:33 AM 44.6 °F 38.1 °F 41.4 °F 88% 29.94 in 10.0 mi WNW 13.8 mph 19.6 mph N/A   Overcast
4:53 AM 44.6 °F 37.2 °F 41.0 °F 87% 29.95 in 10.0 mi WNW 17.3 mph 21.9 mph N/A   Overcast
5:13 AM 44.2 °F 37.6 °F 40.6 °F 87% 29.94 in 10.0 mi WNW 13.8 mph 21.9 mph N/A   Overcast
5:33 AM 44.6 °F 38.4 °F 40.6 °F 86% 29.95 in 10.0 mi WNW 12.7 mph 17.3 mph N/A   Overcast
5:53 AM 44.6 °F 37.8 °F 40.1 °F 84% 29.95 in 10.0 mi WNW 15.0 mph - N/A   Overcast
6:13 AM 44.6 °F 38.1 °F 39.2 °F 81% 29.97 in 10.0 mi WNW 13.8 mph 23.0 mph N/A   Overcast
6:33 AM 44.8 °F 38.7 °F 39.4 °F 81% 29.98 in 10.0 mi WNW 12.7 mph 24.2 mph N/A   Overcast
6:53 AM 44.8 °F 38.3 °F 39.7 °F 82% 29.99 in 10.0 mi WNW 13.8 mph - N/A   Overcast
7:13 AM 44.6 °F 38.8 °F 40.8 °F 87% 29.99 in 10.0 mi NW 11.5 mph 20.7 mph N/A   Overcast
8:13 AM 45.9 °F 40.0 °F 40.1 °F 80% 30.01 in 10.0 mi WNW 12.7 mph 21.9 mph N/A   Overcast
8:33 AM 46.4 °F 39.2 °F 39.7 °F 78% 30.01 in 10.0 mi NW 18.4 mph 27.6 mph N/A   Overcast
8:53 AM 46.4 °F 39.8 °F 39.2 °F 76% 30.02 in 10.0 mi WNW 16.1 mph 25.3 mph N/A   Overcast
9:13 AM 45.7 °F 39.1 °F 40.5 °F 82% 30.04 in 10.0 mi West 15.0 mph 21.9 mph N/A   Overcast
9:53 AM 46.6 °F - 41.0 °F 81% 30.04 in 10.0 mi West 17.3 mph 25.3 mph N/A   Overcast
11:33 AM 46.8 °F - 39.4 °F 75% 30.09 in 10.0 mi WNW 19.6 mph 27.6 mph N/A   Overcast
11:52 AM 46.6 °F - 39.2 °F 75% 30.10 in 10.0 mi WNW 15.0 mph 23.0 mph N/A   Overcast
12:33 PM 47.5 °F - 40.1 °F 76% 30.12 in 10.0 mi NW 20.7 mph 24.2 mph N/A   Overcast
12:52 PM 47.7 °F - 39.6 °F 73% 30.12 in 10.0 mi WNW 18.4 mph 24.2 mph N/A   Overcast
1:13 PM 48.2 °F - 39.7 °F 73% 30.12 in 10.0 mi West 18.4 mph 24.2 mph N/A   Overcast
1:33 PM 49.6 °F - 40.5 °F 71% 30.13 in 10.0 mi WNW 16.1 mph 23.0 mph N/A   Overcast
1:53 PM 50.2 °F - 40.3 °F 69% 30.13 in 10.0 mi WNW 19.6 mph 26.5 mph N/A   Mostly Cloudy
2:13 PM 50.4 °F - 39.6 °F 66% 30.13 in 10.0 mi WNW 18.4 mph 23.0 mph 0.01 in   Mostly Cloudy
2:33 PM 51.6 °F - 39.4 °F 63% 30.13 in 10.0 mi WNW 19.6 mph 26.5 mph 0.01 in   Mostly Cloudy
2:53 PM 52.9 °F - 39.9 °F 61% 30.14 in 10.0 mi NW 21.9 mph 28.8 mph 0.01 in   Mostly Cloudy
3:13 PM 52.7 °F - 39.6 °F 61% 30.14 in 10.0 mi NW 21.9 mph 28.8 mph N/A   Mostly Cloudy
3:52 PM 52.3 °F - 39.7 °F 62% 30.14 in 10.0 mi WNW 20.7 mph 28.8 mph N/A   Mostly Cloudy
4:13 PM 51.6 °F - 39.2 °F 63% 30.14 in 10.0 mi WNW 18.4 mph 28.8 mph N/A   Scattered Clouds
4:33 PM 52.9 °F - 38.1 °F 57% 30.14 in 10.0 mi WNW 21.9 mph 33.4 mph N/A   Scattered Clouds
4:52 PM 52.7 °F - 37.0 °F 55% 30.14 in 10.0 mi WNW 17.3 mph 29.9 mph N/A   Scattered Clouds
5:13 PM 52.0 °F - 35.2 °F 53% 30.15 in 10.0 mi WNW 20.7 mph 28.8 mph N/A   Scattered Clouds
5:32 PM 52.5 °F - 36.3 °F 54% 30.15 in 10.0 mi WNW 16.1 mph 25.3 mph N/A   Scattered Clouds
5:53 PM 52.0 °F - 35.8 °F 54% 30.15 in 10.0 mi WNW 18.4 mph 25.3 mph N/A   Scattered Clouds
6:12 PM 51.8 °F - 37.4 °F 58% 30.15 in 10.0 mi WNW 17.3 mph 24.2 mph N/A   Mostly Cloudy
6:32 PM 50.9 °F - 37.2 °F 59% 30.16 in 10.0 mi WNW 17.3 mph 26.5 mph N/A   Scattered Clouds
6:53 PM 51.3 °F - 37.6 °F 60% 30.16 in 10.0 mi WNW 16.1 mph 19.6 mph N/A   Scattered Clouds
7:13 PM 51.3 °F - 37.0 °F 58% 30.16 in 10.0 mi NW 13.8 mph - N/A   Clear
7:33 PM 51.3 °F - 37.2 °F 59% 30.17 in 10.0 mi WNW 18.4 mph 24.2 mph N/A   Scattered Clouds
7:52 PM 50.0 °F - 36.5 °F 60% 30.18 in 10.0 mi WNW 12.7 mph 20.7 mph N/A   Scattered Clouds
8:13 PM 49.3 °F - 36.5 °F 61% 30.18 in 10.0 mi WNW 13.8 mph 21.9 mph N/A   Clear
8:33 PM 48.2 °F - 36.1 °F 63% 30.19 in 10.0 mi WNW 11.5 mph 19.6 mph N/A   Scattered Clouds
8:53 PM 47.1 °F - 37.6 °F 69% 30.19 in 10.0 mi WNW 8.1 mph - N/A   Scattered Clouds
9:13 PM 46.4 °F 42.9 °F 37.8 °F 72% 30.20 in 10.0 mi WNW 6.9 mph - N/A   Clear
9:53 PM 45.0 °F 41.2 °F 37.6 °F 75% 30.21 in 10.0 mi West 6.9 mph - N/A   Clear
10:12 PM 44.6 °F 40.7 °F 37.4 °F 76% 30.21 in 10.0 mi West 6.9 mph - N/A   Clear
10:33 PM 43.0 °F 40.3 °F 37.6 °F 81% 30.21 in 10.0 mi WSW 4.6 mph - N/A   Clear
10:53 PM 42.6 °F 39.9 °F 37.0 °F 81% 30.21 in 10.0 mi WSW 4.6 mph - N/A   Clear
11:13 PM 41.2 °F 38.2 °F 37.4 °F 86% 30.21 in 10.0 mi West 4.6 mph - N/A   Clear
11:33 PM 40.6 °F 36.7 °F 37.4 °F 88% 30.21 in 10.0 mi WSW 5.8 mph - N/A   Clear
11:53 PM 41.2 °F 38.2 °F 37.4 °F 86% 30.21 in 10.0 mi WSW 4.6 mph - N/A   Clear